Tracking 21076 objects as of 7-Aug-2020
HD Live streaming from Space Station
objects crossing your sky now

ARIANE 44LP DEB

Track ARIANE 44LP DEB now!


NORAD ID: 33546
Int'l Code: 1988-109V
Perigee: 737.7 km
Apogee: 35,969.9 km
Inclination: 7.2 °
Period: 644.9 minutes
Semi major axis: 24724 km
RCS: 0.0126 m2 (small)
Launch date: December 11, 1988
Source: France (FR)
Launch site: FRENCH GUIANA (FRGUI)

Note: This is SATELLITE DEBRIS
aabbcc
Your satellite tracking list
Your tracking list is empty




NASA's NSSDC Master Catalog

Two Line Element Set (TLE):
1 33546U 88109V   20216.71340647 +.00000020 +00000-0 +28386-2 0  9991
2 33546 007.2007 300.7789 7124857 317.7251 020.9765 02.23307195128252
Source of the keplerian elements: AFSPC